Regional Weather Roundup
Issued by NWS

Home | Current Version | Previous Version | Graphics & Text | Print | Product List | Glossary On
Versions: 1 2 3 4 5 6 7 8 9 10 11 12 13 14 15 16 17 18 19 20 21 22 23 24 25 26 27 28 29 30 31 32 33 34 35 36 37 38 39 40 41 42 43 44 45 46 47 48 49 50
000
ASUS43 KLOT 290908
RWRIL

ILLINOIS REGIONAL WEATHER ROUNDUP
NATIONAL WEATHER SERVICE CHICAGO/ROMEOVILLE IL
400 AM CDT SAT APR 29 2017

NOTE: "FAIR" INDICATES FEW OR NO CLOUDS BELOW 12,000 FEET WITH NO
SIGNIFICANT WEATHER AND/OR OBSTRUCTIONS TO VISIBILITY.

* THESE STATIONS ARE NOT UNDER NWS QUALITY CONTROL. THEY ALSO MAY NOT
  REPORT WEATHER SUCH AS PRECIPITATION OR FOG.

ILZ001-002-007-009-015-016-024-291000-
NORTHWEST ILLINOIS

CITY           SKY/WX    TMP DP  RH WIND       PRES   REMARKS
MOLINE         CLOUDY    47  42  83 NE13      30.01R
STERLING*      CLOUDY    47  43  86 E13G23    30.03R
SAVANNA*       CLOUDY    46  40  81 NE14      30.05R
$$

ILZ003-004-008-010-011-017-018-291000-
NORTH CENTRAL ILLINOIS

CITY           SKY/WX    TMP DP  RH WIND       PRES   REMARKS
ROCKFORD       CLOUDY    47  41  80 NE13      30.07R
FREEPORT*      CLOUDY    44  40  88 NE12      30.07S
ROCHELLE*      CLOUDY    45  42  87 NE18G25   30.03F
DE KALB*       CLOUDY    45  41  86 NE17      30.04S
PERU*          CLOUDY    46  42  84 NE15G23   30.03R
$$

ILZ005-006-012>014-019>023-291000-
NORTHEAST ILLINOIS

CITY           SKY/WX    TMP DP  RH WIND       PRES   REMARKS
CHICAGO-OHARE  CLOUDY    46  37  71 NE18      30.04F
CHICAGO-MIDWAY CLOUDY    46  40  79 N17G25    30.04R
AURORA         CLOUDY    47  40  76 NE22G30   30.03F
LANSING*       CLOUDY    46  43  90 N13G21    30.02S
JOLIET*        CLOUDY    46  42  85 NE16      30.02R
WAUKEGAN       CLOUDY    42  39  89 N16       30.07S
DUPAGE AIRPORT CLOUDY    45  40  82 NE18G25   30.03F
KANKAKEE*      CLOUDY    47  41  81 NE12G17   30.02R
WHEELING       CLOUDY    44  40  85 NE12G24   30.08S
MORRIS*        MOCLDY    45  41  86 NE7G18    30.01R
ROMEOVILLE*    CLOUDY    45  42  89 NE23      30.02R
NORTHERLY ISL    N/A     45  41  86 MISG        N/A
$$

LMZ740>746-291000-
SOUTHERN LAKE MICHIGAN

STATION/POSITION SKY/WX   TEMP    WIND        PRES    VSBY  WAVE
                          AIR SEA DIR/SP/G                  HT/PER
                          (F)     (DEG/KT/KT) (MB)    (MI)  (FT/S)
SOUTHERN BUOY              43 41   30/  8/ 10 1019.3          2/ 4
HARRISON CRIB              45     360/ 18/ 20   N/A
BURNHAM HARBOR             45     350/ 14/ 18   N/A
CALUMET HARBOR             45     350/ 15/ 22 1016.7R
BURNS HARBOR               47      30/ 17/ 21 1016.9R
MICHIGAN CITY              46      20/ 21/ 23   N/A
MICHIGAN CITY 6N           45 46                N/A           5/ 4
ST. JOSEPH                 48 49   50/ 17/ 23 1017.4          5/ 4
$$

ILZ025>027-034>036-040-047-049-050-058-095>099-291000-
WEST-CENTRAL ILLINOIS

CITY           SKY/WX    TMP DP  RH WIND       PRES   REMARKS
QUINCY         CLOUDY    51  50  96 NE16      29.95R FOG
GALESBURG*     CLOUDY    47  46  95 NE16      29.99R FOG
MACOMB*        CLOUDY    49  49  97 NE14      30.00R FOG
JACKSONVILLE*  RAIN      55  54  97 N7        29.94R
PITTSFIELD*    RAIN      56  56  97 NE7       29.94F
$$

ILZ028>032-037-038-041>044-048-051>054-059>061-291000-
CENTRAL ILLINOIS

CITY           SKY/WX    TMP DP  RH WIND       PRES   REMARKS
PONTIAC        CLOUDY    48  44  85 NE16      30.00R
BLOOMINGTON    CLOUDY    49  47  93 NE17      29.99R FOG
DECATUR        LGT RAIN  55  55 100 NE7       29.97R FOG
PEORIA         CLOUDY    53  49  86 NE18      29.99R
LACON*         CLOUDY    48  42  79 NE8       30.01R
LINCOLN*       CLOUDY    55  55  99 NE6       29.96R
SPRINGFIELD    LGT RAIN  57  55  93 E7        29.95S FOG
TAYLORVILLE    TSTM      55  55  99 NE8       29.96R
$$

ILZ033-039-045-046-055>057-062-063-291000-
EAST-CENTRAL ILLINOIS

CITY           SKY/WX    TMP DP  RH WIND       PRES   REMARKS
CHAMPAIGN      CLOUDY    55  53  93 N13       29.96R FOG
RANTOUL*       LGT RAIN  53  52  95 N13       30.00R
MATTOON        LGT RAIN  55  55 100 NE5       29.95R FOG
PARIS*         CLOUDY    55  55 100 NE6       29.94R
$$

ILZ079-100>102-291000-
SOUTHWEST ILLINOIS

CITY           SKY/WX    TMP DP  RH WIND       PRES   REMARKS
ALTON          RAIN      56  55  98 NE7       29.85F
BELLEVILLE     TSTM      59  59 100 NE9       29.83F FOG
CAHOKIA*       TSTM      58  56  93 N5        29.85F FOG
$$

ILZ064>066-069>071-074>076-080>082-084>086-088>090-092>094-291000-
SOUTH-CENTRAL ILLINOIS

CITY           SKY/WX    TMP DP  RH WIND       PRES   REMARKS
CARBONDALE     RAIN      63  63 100 E8        29.82R FOG
CAIRO*         CLOUDY    74  69  86 S7        29.80S
EFFINGHAM*     TSTM      57  57 100 N8        29.91F
MARION         CLOUDY    64  64 100 NE8       29.83S
MT. VERNON     TSTM      60  59  96 NE13      29.84F
CENTRALIA*     TSTM      59  59 100 CALM      29.86R
SALEM*         TSTM      60  58  95 N12       29.84F
METROPOLIS*    CLOUDY    76  69  79 S7        29.83R
$$

ILZ067-068-072-073-078-083-087-091-291000-
SOUTHEAST ILLINOIS

CITY           SKY/WX    TMP DP  RH WIND       PRES   REMARKS
LAWRENCEVILLE  TSTM      60  60 100 E7        29.90R FOG
FLORA*         CLOUDY    59  58  97 E9        29.86F
FAIRFIELD*     TSTM      59  59 100 CALM      29.89F
HARRISBURG*    TSTM      65  64  97 E17G28    29.83F
ROBINSON*      RAIN      57  57 100 NW15      29.93R
CARMI*         TSTM      64  64 100 NW12      29.87R
$$

ABBREVIATIONS USED IN REMARKS
   TC - TEMPERATURE IN CELSIUS
  WCI - WIND CHILL INDEX
   HX - HEAT INDEX
  VSB - VISIBILITY
$$





USA.gov is the U.S. government's official web portal to all federal, state and local government web resources and services.